• Join FlightAware (Why Join?)
  • Login
  • US Flag 
02:20AM EDT


 

Airport Tracker/Info


-or-


 

Live Flight TrackerFlight Track Log ✈ DAL981 ✈ 07-May-2013 ✈ KMSN - KMSP

Flight Track Log - Related Links

Times and Time Zones

All times are in EDT time to prevent confusion due to time zone crossing. See the DAL981 flight status page for this flight to view local times or setup timezone preferences in your user account.

Time Position Orientation Groundspeed Altitude Reporting Facility
EDT Latitude Longitude Course Direction KTS MPH feet Rate Location/Type
08:22AM 43.1797 -89.3664 288° West 234 269 2,600  Level Chicago Center
08:23AM 43.1994 -89.4647 285° West 266 306 4,800 2,220 Climbing Chicago Center
08:24AM 43.2663 -89.9928 288° West  Level FlightAware Approximate
08:25AM 43.2938 -90.1585 289° West  Level FlightAware Approximate
08:25AM 43.2306 -89.6889 281° West 276 318 9,500  Level Chicago Center
08:26AM 43.3289 -90.3226 288° West  Level FlightAware Approximate
08:26AM 43.2450 -89.8047 280° West 312 359 11,400  Level Chicago Center
08:27AM 43.3528 -90.4240 288° West  Level FlightAware Approximate
08:27AM 43.2667 -89.9436 282° West 368 423 13,500  Level Chicago Center
08:28AM 43.2867 -90.0950 280° West 396 456 15,900 2,220 Climbing Chicago Center
08:29AM 43.3161 -90.2494 285° West 414 476 18,200 2,220 Climbing Chicago Center
08:30AM 43.3489 -90.4067 286° West 425 489 20,500 1,800 Climbing Chicago Center
08:31AM 43.3814 -90.5658 286° West 436 502 22,000 1,080 Climbing Chicago Center
08:31AM 43.3958 -90.6286 288° West 435 501 22,000  Level Minneapolis Center
08:32AM 43.4308 -90.7911 287° West 444 511 22,000  Level Minneapolis Center
08:33AM 43.4642 -90.9525 286° West 445 512 22,000  Level Minneapolis Center
08:34AM 43.5025 -91.1444 285° West 442 509 22,000  Level Minneapolis Center
08:35AM 43.5400 -91.3358 285° West 440 506 22,000  Level Minneapolis Center
08:37AM 43.5719 -91.4964 285° West 439 505 22,000  Level Minneapolis Center
08:38AM 43.6033 -91.6578 285° West 441 507 22,000  Level Minneapolis Center
08:39AM 43.6350 -91.8183 285° West 440 506 22,000  Level Minneapolis Center
08:40AM 43.6731 -92.0136 285° West 444 511 22,000  Level Minneapolis Center
08:41AM 43.7028 -92.1736 284° West 438 504 22,000  Level Minneapolis Center
08:42AM 43.7581 -92.3183 298° West 434 499 22,000 -120 Level Minneapolis Center
08:43AM 43.8300 -92.4564 306° West 435 501 21,800 -780 Descending Minneapolis Center
08:44AM 43.8978 -92.5861 306° West 421 484 20,500 -1,860 Descending Minneapolis Center
08:45AM 43.9631 -92.7092 306° West 399 459 18,000 -2,580 Descending Minneapolis Center
08:46AM 44.0392 -92.8517 307° West 385 443 15,200 -2,580 Descending Minneapolis Center
08:47AM 44.0992 -92.9667 306° West 371 427 12,800 -2,340 Descending Minneapolis Center
08:48AM 44.1561 -93.0778 306° West 357 411 10,500 -1,380 Descending Minneapolis Center
08:49AM 44.2086 -93.1789 306° West 325 374 10,000 -300 Descending Minneapolis Center
08:50AM 44.2828 -93.2033 347° North 295 339 10,000 -60 Level Minneapolis Center
08:51AM 44.3658 -93.2022 North 298 343 9,900 -780 Descending Minneapolis Center
08:52AM 44.4469 -93.1953 North 293 337 8,500 -1,440 Descending Minneapolis Center
08:53AM 44.5261 -93.1911 North 289 333 7,000 -1,680 Descending Minneapolis Center
08:54AM 44.6183 -93.1844 North 280 322 5,100 -1,500 Descending Minneapolis Center
08:55AM 44.6931 -93.1864 359° North 269 310 4,000 -1,140 Descending Minneapolis Center